Domov               UVHVVR             MKGP            O straneh              
ZDRAVSTVENO VARSTVO RASTLIN
  MREŽA AGROMET. POSTAJ
 ► PROGNOSTIČNA OBVESTILA
AGROMETEOROLOŠKI PODATKI -
ARSO
OBVLADOVANJE TVEGANJ ZARADI
NEUGODNIH VREMENSKIH RAZMER
  ► NARAVNE NESREČE
  ► SUŠA/MOČA
  ► NAMAKANJE
  ► ŽLED (gozdarstvo)
KARTOGRAFSKI PRIKAZI
SPLETNE POVEZAVE
PROJEKTI IN PUBLIKACIJE

AGROMETEOROLOŠKA MREŽA: VREMENSKE POSTAJE IN FENOLOŠKA OPAZOVANJA

Pregled podatkov za lokacijo Bistrica ob Sotli, meteorološka postaja 39146

Pregled senzorjev na lokaciji

ID Ime Zadnja
vrednost
Datum
zadnje
spremembe
Tip
senzorja
1895 Omočenost lista (U) 0 U 25.2.2018 12:30 A730WET
1892 Padavine (mm) 0 mm 25.2.2018 12:30 Rain-O-Matic
1894 Relativna vlaga 2 m (% RH) 60,39 % RH 25.2.2018 12:30 50YA
1893 Temperatura 2 m (°C) -6,69 °C 25.2.2018 12:30 50YA

Pregled podatkov zadnjih 24 ur

Zap.
št.
Datum in čas Bistrica ob Sotli
Omočenost
lista
Padavine Relativna
vlaga
2
m
Temperatura
2
m
1 25.2.2018 12:30
2 25.2.2018 12:00 0 0 59,3 -6,3
3 25.2.2018 11:30 0 0 58 -5,9
4 25.2.2018 11:00 0 0 58,7 -6,2
5 25.2.2018 10:30 0 0 62,4 -7,6
6 25.2.2018 10:00 0 0 63,6 -8
7 25.2.2018 09:30 0 0 62,6 -7,6
8 25.2.2018 09:00 0 0 63,2 -7,9
9 25.2.2018 08:30 0 0 66,2 -8,9
10 25.2.2018 08:00 0 0 67,8 -9,2
11 25.2.2018 07:30 0 0 69,4 -9,2
12 25.2.2018 07:00 0 0 70,4 -9,3
13 25.2.2018 06:30 0 0 69,8 -9,1
14 25.2.2018 06:00 0 0 69,1 -8,9
15 25.2.2018 05:30 0 0 69,3 -8,8
16 25.2.2018 05:00 0 0 70,3 -8,5
17 25.2.2018 04:30 0 0 72,5 -8,2
18 25.2.2018 04:00 0 0 72,7 -8,2
19 25.2.2018 03:30 0 0 72,2 -8,1
20 25.2.2018 03:00 0 0 71,8 -8
21 25.2.2018 02:30 0 0 69,2 -7,6
22 25.2.2018 02:00 0 0 69,9 -7,4
23 25.2.2018 01:30 0 0 67,6 -7,1
24 25.2.2018 01:00 0 0 66,3 -6,8
25 25.2.2018 00:30 0 0 62 -5,8
26 25.2.2018 00:00 0 0 65,2 -5,9
27 24.2.2018 23:30 0 0 70,1 -6,4
28 24.2.2018 23:00 0 0 68,6 -6,1
29 24.2.2018 22:30 0 0 72,4 -6
30 24.2.2018 22:00 0 0 76 -5,5
31 24.2.2018 21:30 0 0 74,8 -5,1
32 24.2.2018 21:00 0 0 72,7 -4,5
33 24.2.2018 20:30 0 0 72,7 -4,4
34 24.2.2018 20:00 0 0 73,8 -4,2
35 24.2.2018 19:30 0 0 75,6 -4,4
36 24.2.2018 19:00 0 0 80,4 -5,1
37 24.2.2018 18:30 0 0 82 -5
38 24.2.2018 18:00 0 0 80,8 -3,9
39 24.2.2018 17:30 0 0 81,1 -3,7
40 24.2.2018 17:00 0 0 80,5 -3,4
41 24.2.2018 16:30 0 0 79,6 -3,3
42 24.2.2018 16:00 0 0 76,5 -3,1
43 24.2.2018 15:30 0 0 77,6 -2,9
44 24.2.2018 15:00 0 0 77 -2,8
45 24.2.2018 14:30 0 0 75,7 -2,6
46 24.2.2018 14:00 0 0 76,2 -2,5
47 24.2.2018 13:30 0 0 78,8 -2,5
48 24.2.2018 13:00 0 0 79 -2,7
© 2011 Ministrstvo za kmetijstvo, gozdarstvo in prehrano. Vse pravice pridržane.